Вернуться в каталог

STARLINK-6324

АктивенСвязьVLEO
NORAD 57353·PAYLOAD·🇺🇸 United States

Запущен Jul 16, 2023 с Cape Canaveral Space Force Station

Loading…

Ближайшие Пролёты (ближайшие 24 часа)

TLE

СвежийSource: CelesTrak SupGP

Эпоха: Sep 14, 2026, 20:54 UTC

1 57353C 23099AB  26257.87131944  .00017922  00000+0  64926-3 0  2572
2 57353  42.9995 260.5527 0001479 260.7570 319.6688 15.27563278    16

Отслеживайте STARLINK-6324 в реальном времени с AllMySat

Download on the App Store